Wind_Speed
22 20 21 17 14 14 12 9 12 12 10 8 13 15 19 18 17 19 17 25 24 26 25 17 17 20 22 23 21 20 16 12 5 1 10 8 8 10 11 12 13 15 15
20 21 18 16 12 10 8 6 9 11 10 15 16 18 21 17 15 19 24 23 26 27 18 17 17 20 21 18 17 11 8 9 7 3 6 10 11 12 12 14 15 17 19
22 20 19 20 17 19 19 16 14 13 12 15 18 13 11 12 14 16 19 27 26 24 18 12 13 18 18 14 7 9 9 11 9 5 5 9 11 12 14 13 13 12 11
29 27 24 22 24 25 20 18 20 19 15 13 12 13 15 17 19 19 20 23 29 18 7 5 10 14 12 8 11 11 9 11 12 13 12 11 9 10 11 11 12 12 13
26 26 24 23 24 24 26 20 17 16 15 11 13 17 19 19 19 20 22 24 27 10 6 15 18 17 18 15 14 12 11 11 12 12 9 9 10 9 7 6 5 7 9
22 23 23 21 25 25 22 19 12 8 7 11 12 16 20 24 25 22 21 25 25 12 14 15 15 16 16 20 20 16 12 11 12 13 11 7 6 5 8 8 6 4 2
23 23 21 22 20 21 10 10 6 7 13 17 19 19 21 19 19 21 19 19 12 12 11 11 8 11 14 15 14 15 17 15 15 16 11 6 7 9 9 7 9 11 7
22 20 19 18 15 12 14 12 11 8 12 15 16 16 16 16 17 16 11 7 11 8 7 10 12 16 18 19 20 19 16 13 11 11 12 10 11 10 9 7 3 7 9
20 18 17 15 12 14 13 10 6 8 10 13 12 11 10 10 8 4 14 22 25 24 19 15 15 14 9 13 11 10 13 13 13 13 13 13 14 13 14 15 13 2 3
16 14 13 12 7 8 6 6 6 6 6 6 4 2 3 8 9 21 27 27 25 24 24 22 19 15 14 11 5 4 3 2 3 9 10 12 14 15 15 15 13 12 6
12 8 6 7 9 6 6 7 8 4 2 11 16 17 18 19 19 22 23 26 28 24 22 18 16 15 9 7 4 4 3 4 4 3 5 6 7 9 12 12 14 13 6
6 5 4 5 5 8 5 2 11 15 19 19 23 22 25 25 24 20 17 16 13 17 19 15 6 9 10 11 12 12 13 2 2 11 3 10 10 9 7 8 8 11 9
12 10 8 9 16 16 18 19 18 17 18 18 19 19 20 26 24 21 23 21 15 16 12 9 7 9 14 19 23 24 25 25 16 16 13 12 10 10 8 12 8 10 9
21 22 25 24 24 23 21 20 20 20 22 22 21 22 23 24 20 16 14 13 8 6 5 4 5 7 11 20 24 26 27 29 24 22 14 11 12 15 16 14 12 7 13
23 23 24 24 25 27 25 23 25 25 24 25 26 25 19 10 4 1 0 4 4 4 7 14 24 28 25 24 24 26 27 28 30 17 13 9 14 15 17 15 15 14 13
21 21 22 23 23 23 22 26 26 26 32 25 15 8 6 6 10 11 13 13 15 23 28 26 24 23 22 22 24 24 25 26 28 22 18 16 15 14 14 17 15 14 11
25 22 23 24 23 22 21 21 23 17 13 10 11 12 14 16 18 22 26 26 24 22 22 22 20 19 22 22 21 21 21 24 24 24 20 18 16 15 15 14 13 12 11
23 24 22 21 19 19 20 21 23 21 18 14 15 16 19 23 23 22 22 24 26 26 28 28 26 26 25 23 23 22 20 21 21 21 21 21 19 15 16 12 13 13 13
12 12 13 14 23 26 24 23 21 20 18 18 21 23 25 27 30 29 28 29 30 31 31 30 29 26 24 24 28 28 23 24 21 21 21 21 18 15 13 15 13 12 12
14 17 23 23 20 19 17 14 11 10 14 15 16 24 23 27 29 29 28 28 30 29 28 27 25 26 25 25 26 27 24 19 20 22 21 19 20 18 14 15 15 14 13
18 22 22 25 23 23 22 23 22 22 23 25 28 30 29 31 31 30 30 31 31 28 27 27 28 25 24 23 24 26 25 22 16 18 21 19 16 20 15 13 14 14 13
12 17 20 20 21 21 20 19 20 22 26 28 28 27 26 27 27 27 28 27 26 24 23 24 24 23 24 26 29 28 27 26 19 15 20 21 16 19 17 16 15 14 15
12 15 15 16 15 14 14 14 19 25 25 25 25 24 24 25 26 26 25 24 25 26 24 22 22 21 23 26 27 27 27 26 26 13 17 18 23 16 18 17 16 15 14
22 21 20 21 22 24 24 24 23 23 22 22 22 22 23 23 23 24 24 24 23 22 22 22 21 21 23 25 26 24 24 21 21 23 15 15 21 22 19 17 17 16 15
15 14 15 17 19 21 22 21 20 20 20 20 21 21 20 21 21 21 20 19 19 19 20 20 19 19 20 21 24 24 17 24 19 20 21 13 14 23 18 19 17 17 18
18 18 18 19 19 19 19 19 19 19 20 20 20 20 20 21 21 21 20 19 21 23 23 23 23 21 20 18 19 20 21 18 22 20 18 19 13 19 24 19 19 19 17
Wind_Direction
357 347 338 330 320 287 265 240 272 324 331 319 310 308 303 307 315 309 330 329 326 320 319 318 313 317 326 326 323 319 319 322 291 113 33 41 58 82 82 79 70 65 60
338 334 335 329 325 326 312 297 288 292 298 311 309 310 307 300 302 315 325 323 321 321 319 316 322 329 329 328 327 334 348 353 350 17 47 61 85 90 88 82 78 77 70
329 333 334 327 311 303 296 290 288 290 302 301 304 310 308 313 319 323 323 320 315 321 308 309 333 340 338 342 21 22 18 4 14 55 86 78 80 81 71 65 64 69 79
317 314 311 308 306 299 300 295 287 288 281 285 285 295 307 306 309 313 313 309 307 304 285 12 29 28 19 42 35 32 35 60 72 78 83 82 77 64 65 61 62 65 63
312 310 303 309 308 295 282 287 306 294 282 274 285 294 300 309 310 304 309 302 299 232 120 84 74 63 55 60 62 61 72 81 85 80 67 67 66 62 43 26 43 49 58
309 302 303 304 302 292 296 297 291 307 292 293 303 301 300 300 301 291 297 291 290 174 131 108 90 74 66 62 65 66 69 87 92 89 81 72 65 26 12 356 356 359 8
303 301 304 297 295 321 296 282 316 308 302 301 300 301 298 292 286 289 290 282 189 159 143 139 128 84 75 74 69 71 73 78 85 93 83 46 28 46 36 47 77 74 51
302 302 301 300 306 305 316 316 318 304 303 305 298 293 285 288 287 290 280 190 143 134 142 147 136 118 97 82 79 78 81 87 91 90 78 64 47 41 31 15 136 106 53
297 301 307 312 311 322 314 318 328 329 314 314 303 287 291 291 296 249 137 115 105 96 97 97 100 122 131 84 83 89 85 92 97 91 78 67 56 56 57 66 70 105 355
293 297 305 318 321 337 352 5 4 1 10 11 25 96 94 99 115 126 119 105 93 88 89 82 79 77 93 117 97 66 68 32 77 95 93 85 70 70 67 62 59 63 38
305 315 318 336 328 322 331 340 323 332 52 93 90 91 94 99 109 110 106 103 96 84 76 67 76 76 78 83 53 353 319 332 211 154 116 82 66 63 67 60 59 57 44
25 19 7 358 338 325 328 8 97 100 89 82 84 79 89 93 92 87 91 103 107 119 115 122 106 78 52 31 19 27 43 1 175 197 149 80 63 58 61 58 62 57 55
47 51 49 43 65 79 86 86 86 89 81 77 77 76 79 90 89 94 108 112 122 125 118 102 81 63 61 50 45 45 43 42 51 154 110 80 60 59 65 62 88 63 62
59 68 71 72 74 74 83 86 83 82 83 82 84 88 98 109 114 116 120 116 117 113 93 56 41 40 53 57 49 44 44 45 51 130 126 93 68 60 57 63 62 62 52
67 68 69 71 72 78 79 87 94 95 100 103 115 121 127 126 117 198 259 300 297 345 8 60 76 71 64 57 50 46 45 44 44 79 97 99 59 49 53 52 58 56 53
73 74 73 78 78 79 83 95 99 109 117 116 108 82 44 59 78 73 70 74 70 85 75 76 73 70 64 55 49 50 48 42 48 70 62 65 57 47 52 47 50 42 36
85 78 84 92 91 88 86 92 96 100 105 98 85 79 75 71 72 84 89 82 76 78 73 70 70 72 64 58 51 53 51 49 61 55 58 49 47 51 43 41 37 34 29
101 108 106 102 93 82 88 92 98 98 93 86 85 80 80 88 86 82 80 83 73 68 67 67 69 68 65 57 46 39 63 60 52 53 50 44 46 42 38 35 34 27 23
118 113 98 86 101 104 101 100 96 90 82 79 84 72 75 78 78 78 75 72 69 66 64 61 61 61 60 52 44 51 65 56 53 50 48 41 35 34 36 37 33 40 48
75 116 117 115 114 112 108 104 93 76 79 84 82 81 75 75 69 64 62 65 73 71 65 62 59 61 57 54 55 57 53 46 50 44 40 41 39 35 41 38 35 30 33
61 88 96 91 92 96 94 90 85 80 75 80 78 79 78 75 72 70 67 67 69 70 67 62 58 61 61 58 53 49 48 50 52 43 41 41 40 34 45 48 43 39 43
70 104 103 104 107 110 109 107 101 93 88 86 83 81 80 78 77 74 70 70 72 73 74 72 69 60 52 50 48 45 42 41 50 49 41 39 40 32 47 44 43 44 43
93 107 117 123 124 124 125 112 95 89 87 86 87 86 83 81 79 79 79 73 67 66 70 75 74 70 60 54 48 44 42 41 40 52 43 41 42 49 47 45 40 39 41
90 95 94 91 92 93 95 97 97 94 95 96 95 93 91 88 87 84 80 78 77 70 64 66 68 62 57 52 47 46 45 44 45 44 44 41 41 48 47 47 46 52 51
106 104 103 99 97 96 97 98 99 100 101 101 100 98 97 96 93 90 87 83 78 71 68 66 64 59 55 51 46 45 48 48 49 46 43 48 43 39 43 48 52 53 50
103 103 104 105 104 104 102 101 99 100 99 100 99 96 95 95 98 96 87 75 73 71 70 67 61 56 53 50 45 47 51 50 47 47 44 52 59 40 41 51 53 54 55
Height
797 795 792 789 787 787 785 784 789 788 787 784 786 784 787 786 784 786 773 777 775 773 770 766 762 759 755 752 749 746 743 740 736 735 735 733 732 731 730 728 726 724 722
796 794 792 789 786 785 783 783 783 782 780 783 782 780 781 781 779 778 772 773 772 770 766 762 760 756 751 749 747 744 743 740 738 736 736 736 735 734 733 730 728 726 725
795 792 790 788 785 784 782 780 778 777 775 778 780 775 777 776 775 773 773 772 768 767 764 760 757 752 750 747 746 744 742 740 738 736 738 739 738 736 735 734 732 730 728
791 787 785 784 783 781 779 776 774 773 773 771 773 773 773 773 772 770 768 767 766 765 761 758 755 754 751 748 746 745 743 741 740 739 739 740 739 739 738 737 735 733 731
786 783 779 777 777 775 773 771 767 769 768 768 766 767 769 768 767 765 762 761 765 761 759 757 757 757 755 750 748 747 745 744 743 743 744 743 742 740 739 739 737 735 734
780 778 775 773 772 770 767 765 763 764 764 765 762 764 764 762 762 761 759 760 760 757 757 758 759 759 758 754 752 750 748 748 747 746 746 746 744 743 741 740 738 737 735
775 773 770 769 767 765 761 763 760 761 763 762 761 760 758 758 756 756 755 756 754 756 757 758 761 761 760 757 755 753 753 752 750 749 749 749 747 744 742 741 740 738 738
771 769 767 765 763 762 762 760 758 759 759 758 757 756 756 754 754 752 752 753 754 755 757 758 761 761 761 760 758 757 756 754 752 752 751 750 748 746 743 740 739 739 738
767 765 764 763 761 759 759 759 758 757 757 756 754 753 753 753 751 751 752 752 755 757 759 760 761 762 763 760 761 761 759 757 756 754 753 752 750 747 744 741 740 740 738
763 762 762 760 759 759 758 758 757 757 756 756 755 753 754 753 752 753 754 755 758 761 762 763 764 765 764 763 764 764 762 761 759 757 756 754 752 749 747 745 743 741 740
760 760 760 760 759 759 758 758 757 757 757 757 757 757 757 757 758 758 760 760 762 765 765 767 768 766 767 765 765 763 761 760 760 759 757 756 754 752 749 748 746 744 743
761 761 761 761 760 758 757 759 758 759 760 762 762 763 764 765 765 766 766 767 768 769 770 770 770 770 769 767 766 763 760 757 757 758 759 757 756 753 751 749 748 746 744
766 765 765 764 762 761 761 762 764 765 767 769 770 771 772 771 772 773 774 773 774 774 773 773 772 772 771 769 766 763 760 758 754 757 760 759 758 756 753 751 749 748 746
771 770 769 768 768 768 768 769 770 772 774 776 778 778 779 780 779 780 779 778 778 777 776 775 774 774 773 773 769 767 764 762 759 759 761 762 761 758 754 753 751 749 748
779 778 777 776 776 775 775 776 778 780 781 783 785 784 785 785 785 783 782 781 780 779 779 778 777 777 777 776 774 772 769 767 765 762 764 765 762 760 757 755 753 751 750
786 786 785 785 784 784 784 784 786 787 788 789 789 789 789 789 788 786 785 785 783 783 782 782 782 782 781 780 779 777 775 773 771 769 768 767 766 764 761 758 756 754 752
794 795 794 793 793 792 792 792 792 795 795 795 794 793 793 791 791 790 789 789 788 788 787 787 786 787 786 786 784 782 780 778 776 774 773 771 768 766 763 761 759 757 755
802 801 801 800 800 800 800 799 799 798 798 798 798 797 797 797 797 796 795 794 793 793 792 792 792 792 792 790 789 787 785 783 780 778 776 774 771 769 766 764 762 760 758
809 809 808 807 808 807 807 806 806 805 805 804 804 804 804 803 802 802 801 799 799 799 799 799 798 797 797 795 793 790 790 788 786 783 780 777 774 772 769 767 765 762 761
813 813 814 814 814 814 814 813 813 812 811 811 811 811 811 810 809 808 807 807 807 807 806 805 804 803 801 800 799 797 794 793 791 787 783 781 778 774 772 769 767 765 762
817 819 819 819 818 818 818 817 817 817 816 816 816 817 817 816 816 816 816 815 814 814 813 812 810 808 807 805 804 801 798 796 793 790 787 784 781 778 775 773 770 768 766
822 823 823 822 822 822 823 823 823 823 823 823 824 824 824 823 823 823 822 822 821 820 819 818 816 815 813 811 807 804 801 798 795 793 791 788 784 782 778 776 773 771 769
826 826 826 826 826 827 827 827 828 828 828 829 830 830 830 830 829 829 829 829 828 826 824 822 821 819 818 814 811 808 805 802 799 797 795 791 788 785 782 780 777 774 772
829 830 830 830 830 831 831 832 832 833 834 834 835 835 835 835 835 835 834 834 833 832 830 828 826 824 821 818 815 813 810 807 804 801 798 796 793 790 786 783 781 778 776
832 832 833 833 834 835 836 837 838 839 839 839 840 840 841 840 840 839 839 838 837 835 834 832 830 828 825 823 820 818 815 812 808 806 802 799 797 794 790 787 784 782 779
835 836 837 837 838 839 840 842 842 843 843 844 844 844 844 844 844 843 842 842 841 840 839 837 835 832 829 827 824 822 819 815 813 810 807 803 800 798 794 791 789 786 783